Location: Brede
(50.9167°N, 0.6000°E)
Time: 02:31:59
(UTC+00:00)

Meteor 1-29 - Pass Details

Date: 08 August 2020
Orbit: 438 x 460 km, 97.7° (Epoch: 19 September)

Event Time Altitude Azimuth Distance (km) Brightness Sun altitude
Rises 01:44:53 0° 6° (N) 2,503 8.0 -19.4°
Reaches altitude 10° 01:47:04 10° 356° (N) 1,622 6.6 -19.3°
Maximum altitude 01:50:12 32° 292° (WNW) 825 4.1 -19.1°
Enters shadow 01:50:34 31° 279° (W) 840 4.1 -19.0°
